Content
SEND FEEDBACK

Daily
Averages
Monthly
Summary
Switzerland

GENEVA, SWITZERLAND


Home > Europe > Switzerland
Elevation: 1364 feet     Latitude: 46 15N     Longitude: 006 08E

WEATHER
 
SELECT A DAY
Number of Records: 305,659;   Date Range: 7/1/96 - 7/26/14
 
SHARE

PRINT THIS DATA

[ ← Previous Day ]
WEATHER ALMANAC - AUGUST 28, 2013
[ Next Day → ]
[ °C ]   °F
Weather ElementAverageHighLow
Temperature62.8 °F73.4 °F (5:20 pm)51.8 °F (5:50 am)
Dewpoint53.9 °F57.2 °F (1:20 am)51 °F (5:00 am)
Humidity72.3 %100 % (1:20 am)38 % (5:00 pm)
Barometer30.04 in30.09 in (8:50 pm)30.00 in (1:00 am)
Wind Speed4.7 mph15.7 mph (1:00 pm)
Weather ElementAverage
Visibility8.1 mi
Wind DirectionENE (56.9 °)

Weather ElementTotal
Precipitation---
Heating Degree Days2.4 (Base 65)
Growing Degree Days12.6 (Base 50)
Averaged from 69 records on August 28, 2013
WEATHER CONDITIONS BREAKOUT
WIND DIRECTION BREAKOUT
WEATHER BY HOUR - AUGUST 28, 2013
[ °C ]   °F
Local TimeTemperatureDewpointHumidityBarometerVisibilityWind DirectionWind SpeedGust SpeedPrecipitationEventsConditions
12:20 AM59.0 °F55.4 °F88 %30.01 in6.2 miCalmMostly Cloudy
12:50 AM57.2 °F55.4 °F94 %30.01 in6.2 miCalmMostly Cloudy
1:00 AM58.0 °F55.0 °F87 %30.00 inNNW (330°)2.3 mph
1:20 AM57.2 °F57.2 °F100 %30.01 in6.2 miCalmMostly Cloudy
1:50 AM57.2 °F57.2 °F100 %30.01 in6.2 miVariable1.2 mphMostly Cloudy
2:00 AM58.0 °F55.0 °F88 %30.00 in19.0 miNW (310°)1.2 mphPartly Cloudy
2:20 AM57.2 °F55.4 °F94 %30.01 in6.2 miCalmMostly Cloudy
2:50 AM55.4 °F55.4 °F100 %30.01 in6.2 miCalmScattered Clouds
3:00 AM56.0 °F54.0 °F91 %30.00 inSW (220°)1.2 mph
3:50 AM55.4 °F55.4 °F100 %30.01 in6.2 miCalmScattered Clouds
4:00 AM55.0 °F53.0 °F89 %30.01 inWest (260°)1.2 mph
4:20 AM53.6 °F53.6 °F100 %30.01 inVariable1.2 mphClear
4:50 AM53.6 °F51.8 °F94 %30.01 in6.2 miCalmPartly Cloudy
5:00 AM53.0 °F51.0 °F89 %30.01 in19.0 miWSW (240°)1.2 mph
5:20 AM53.6 °F51.8 °F94 %30.01 in6.2 miWSW (250°)2.3 mphScattered Clouds
5:50 AM51.8 °F51.8 °F100 %30.01 in6.2 miVariable2.3 mphPartly Cloudy
6:00 AM53.0 °F51.0 °F89 %30.02 inWSW (250°)2.3 mph
6:20 AM53.6 °F51.8 °F94 %30.01 in6.2 miWest (260°)1.2 mphScattered Clouds
6:50 AM53.6 °F51.8 °F94 %30.04 in6.2 miVariable1.2 mphMostly Cloudy
7:00 AM54.0 °F51.0 °F86 %30.04 inCalm
7:20 AM53.6 °F51.8 °F94 %30.04 in6.2 miVariable1.2 mphMostly Cloudy
7:50 AM53.6 °F51.8 °F94 %30.04 in6.2 miVariable1.2 mphMostly Cloudy
8:00 AM54.0 °F51.0 °F87 %30.05 in16.0 miWest (270°)2.3 mphMostly Cloudy
8:20 AM55.4 °F51.8 °F88 %30.04 in6.2 miCalmScattered Clouds
8:50 AM57.2 °F53.6 °F88 %30.04 in6.2 miCalmScattered Clouds
9:00 AM58.0 °F53.0 °F78 %30.04 inSSW (210°)1.2 mph
9:20 AM60.8 °F55.4 °F82 %30.04 in6.2 miCalmPartly Cloudy
9:50 AM62.6 °F55.4 °F77 %30.04 in6.2 miVariable2.3 mphScattered Clouds
10:00 AM60.0 °F55.0 °F77 %30.04 inEast (80°)1.2 mph
10:20 AM64.4 °F57.2 °F77 %30.06 in6.2 miVariable1.2 mphScattered Clouds
10:50 AM66.2 °F57.2 °F73 %30.06 in6.2 miVariable4.6 mphScattered Clouds
11:00 AM64.0 °F55.0 °F64 %30.04 in22.0 miNE (40°)8.1 mphPartly Cloudy
11:20 AM66.2 °F55.4 °F68 %30.06 in6.2 miNNE (30°)8.1 mphScattered Clouds
11:50 AM68.0 °F55.4 °F64 %30.06 in6.2 miEast (80°)5.8 mphPartly Cloudy
12:00 PM65.0 °F53.0 °F55 %30.04 inNNE (20°)5.8 mph
12:20 PM68.0 °F55.4 °F64 %30.06 in6.2 miNNE (20°)5.8 mphPartly Cloudy
12:50 PM69.8 °F55.4 °F60 %30.06 in6.2 miNNE (30°)8.1 mphScattered Clouds
1:00 PM70.0 °F53.0 °F43 %30.02 inNE (50°)15.7 mph
1:20 PM69.8 °F53.6 °F56 %30.06 in6.2 miENE (70°)9.2 mphScattered Clouds
1:50 PM69.8 °F53.6 °F56 %30.06 in6.2 miENE (60°)9.2 mphScattered Clouds
2:00 PM71.0 °F53.0 °F41 %30.01 in19.0 miNE (40°)8.1 mphMostly Cloudy
2:20 PM71.6 °F53.6 °F53 %30.06 in6.2 miNE (50°)10.4 mphScattered Clouds
2:50 PM71.6 °F53.6 °F53 %30.04 in6.2 miNE (40°)11.5 mphScattered Clouds
3:00 PM69.0 °F53.0 °F47 %30.01 inNE (50°)12.7 mph
3:20 PM69.8 °F53.6 °F56 %30.06 in6.2 miNE (40°)8.1 mphMostly Cloudy
3:50 PM71.6 °F53.6 °F53 %30.04 in6.2 miNorth (10°)5.8 mphMostly Cloudy
4:00 PM71.0 °F53.0 °F43 %30.01 inNNE (30°)5.8 mph
4:20 PM71.6 °F53.6 °F53 %30.04 in6.2 miNNE (30°)6.9 mphMostly Cloudy
4:50 PM71.6 °F53.6 °F53 %30.06 in6.2 miNE (40°)6.9 mphMostly Cloudy
5:00 PM72.0 °F52.0 °F38 %30.01 in19.0 miNE (40°)9.2 mphScattered Clouds
5:20 PM73.4 °F53.6 °F50 %30.04 in6.2 miNorth (10°)8.1 mphScattered Clouds
5:50 PM71.6 °F53.6 °F53 %30.04 in6.2 miNNE (20°)4.6 mphScattered Clouds
6:00 PM70.0 °F53.0 °F45 %30.01 inNNE (20°)5.8 mph
6:20 PM69.8 °F55.4 °F60 %30.06 in6.2 miNNE (30°)6.9 mphScattered Clouds
6:50 PM69.8 °F55.4 °F60 %30.06 in6.2 miNE (40°)9.2 mphScattered Clouds
7:00 PM68.0 °F52.0 °F45 %30.02 inNNE (30°)8.1 mph
7:20 PM68.0 °F51.8 °F56 %30.06 in6.2 miNNE (20°)5.8 mphScattered Clouds
7:50 PM66.2 °F53.6 °F64 %30.06 in6.2 miNNE (30°)5.8 mphScattered Clouds
8:00 PM66.0 °F53.0 °F53 %30.04 in25.0 miNNE (30°)8.1 mphScattered Clouds
8:20 PM66.2 °F53.6 °F64 %30.06 in6.2 miNE (40°)6.9 mphPartly Cloudy
8:50 PM66.2 °F53.6 °F64 %30.09 in6.2 miNNE (20°)5.8 mphPartly Cloudy
9:00 PM65.0 °F53.0 °F55 %30.06 inNNE (20°)6.9 mph
9:20 PM64.4 °F53.6 °F68 %30.09 in6.2 miNNE (30°)8.1 mphPartly Cloudy
9:50 PM64.4 °F55.4 °F73 %30.09 in6.2 miNNE (20°)6.9 mphPartly Cloudy
10:00 PM63.0 °F54.0 °F65 %30.07 inNorth (10°)6.9 mph
10:20 PM62.6 °F55.4 °F77 %30.09 in6.2 miNorth (10°)6.9 mphPartly Cloudy
10:50 PM64.4 °F55.4 °F73 %30.09 inNNE (30°)8.1 mphClear
11:20 PM62.6 °F55.4 °F77 %30.09 inNorth (10°)5.8 mphClear
11:50 PM60.8 °F55.4 °F82 %30.09 inVariable2.3 mphClear
Hourly data recorded from LSGG, located miles away from Geneva, Switzerland







STORIES FROM OUR PARTNERS